Regional Weather Roundup
Issued by NWS

Home | Current Version | Previous Version | Graphics & Text | Print | Product List | Glossary On
Versions: 1 2 3 4 5 6 7 8 9 10 11 12 13 14 15 16 17 18 19 20 21 22 23 24 25 26 27 28 29 30 31 32 33 34 35 36 37 38 39 40 41 42 43 44 45 46 47 48 49 50
000
ASUS43 KDMX 161901
RWRIA

WEATHER ROUNDUP FOR IOWA
NATIONAL WEATHER SERVICE DES MOINES IA
200 PM CDT WED AUG 16 2017

NOTE: "FAIR" INDICATES FEW OR NO CLOUDS BELOW 12,000 FEET WITH NO
SIGNIFICANT WEATHER AND/OR OBSTRUCTIONS TO VISIBILITY.

* - THESE STATIONS ARE NOT NWS STATIONS...THUS NOT UNDER NWS
QUALITY CONTROL.  THEY ALSO DO NOT REPORT WEATHER SUCH
AS PRECIPITATION OR FOG.

IAZ001>003-012>014-020>022-031>034-043>046-162000-
   NORTHWEST IOWA

CITY           SKY/WX    TMP DP  RH WIND       PRES   REMARKS
CARROLL *      CLOUDY    75  72  88 S15G25    29.74F
CHEROKEE *     HVY RAIN  73  72  97 S23G30    29.73S
DENISON *      MOSUNNY   73  72  94 S9G16     29.75F FOG
LE MARS *      CLOUDY    73  72  94 CALM      29.71F
ORANGE CITY *  CLOUDY    72  72 100 E7        29.72F
SHELDON *      CLOUDY    70  68  94 E8        29.72F
SIOUX CITY     CLOUDY    78  71  79 SW14      29.72F HX  80
SPENCER        HVY RAIN  70  69  97 SE10      29.76S FOG
STORM LAKE *     N/A     73  70  88 SE10G18   29.74F
$$

IAZ055>058-069>071-079>083-090>094-162000-
   SOUTHWEST IOWA

CITY           SKY/WX    TMP DP  RH WIND       PRES   REMARKS
ATLANTIC *     CLOUDY    77  72  83 S15G23    29.76S
AUDUBON *      HVY RAIN  73  70  88 S13G18    29.77S
CLARINDA *     CLOUDY    82  73  74 SW10G17   29.79F HX  88
COUNCIL BLFS * SUNNY     81  68  65 SW14G21   29.76F HX  83
CRESTON *      CLOUDY    77  70  78 S17G24    29.80F
HARLAN  *      MOSUNNY   79  73  83 SW10G18   29.78F HX  82
LAMONI         CLOUDY    78  71  79 S12G20    29.79R HX  80
RED OAK *      PTSUNNY   81  72  74 SW13      29.77F HX  84
SHENANDOAH *   MOSUNNY   81  70  69 W10G16    29.78F HX  84
$$

IAZ047>049-059>061-072>074-084-162000-
   CENTRAL IOWA

CITY           SKY/WX    TMP DP  RH WIND       PRES   REMARKS
AMES           PTSUNNY   77  76  96 E7        29.77F
ANKENY *       CLOUDY    81  73  78 SE10      29.78R HX  85
BOONE *        CLOUDY    79  73  83 SE10      29.76F HX  82
CHARITON *     PTSUNNY   77  72  83 S17G23    29.78F
DES MOINES     CLOUDY    81  70  69 S17G25    29.77S HX  84
GRINNELL*      CLOUDY    77  73  87 SE14      29.80F
KNOXVILLE *    CLOUDY    81  72  74 SE15G21   29.76S HX  84
MARSHALLTOWN   TSTM      72  71  97 SE15      29.80F
NEWTON *       CLOUDY    81  75  83 SE13      29.77F HX  86
PELLA *        CLOUDY    80  71  74 SE9       29.79F HX  83
PERRY *        CLOUDY    78  73  84 S10G22    29.76F HX  80
$$

IAZ004>006-015-016-023>025-035-036-162000-
   NORTH CENTRAL IOWA

CITY           SKY/WX    TMP DP  RH WIND       PRES   REMARKS
ALGONA *       CLOUDY    77  73  88 SE15G22   29.77F
CLARION *      CLOUDY    75  75 100 SE12G20   29.77F FOG
ESTHERVILLE    CLOUDY    72  71  97 E13       29.75F FOG
FORT DODGE *   CLOUDY    75  70  83 SE9       29.77F
MASON CITY     CLOUDY    76  71  85 SE14      29.83F
FOREST CITY *  PTSUNNY   75  72  88 SE10      29.81F
WEBSTER CITY * CLOUDY    75  72  88 SE13G20   29.75F
IOWA FALLS *   RAIN      75  72  91 SE8       29.80F
$$

IAZ007>011-017>019-026>030-037>042-050>054-066-162000-
   NORTHEAST IOWA

CITY           SKY/WX    TMP DP  RH WIND       PRES   REMARKS
CEDAR RAPIDS   CLOUDY    80  70  71 S13G21    29.84F HX  83
CHARLES CITY * CLOUDY    79  73  83 SE10G18   29.84F HX  82
CLINTON *      CLOUDY    79  74  84 SE10      29.89F HX  82
DECORAH *      CLOUDY    79  70  73 SE9G17    29.87F HX  81
DUBUQUE        PTSUNNY   82  69  64 SE16G22   29.89F HX  85
MONTICELLO *   CLOUDY    82  73  74 SE8G18    29.85F HX  88
OELWEIN *      CLOUDY    81  73  78 SE15      29.85F HX  85
WATERLOO       PTSUNNY   82  69  64 SE17G23   29.81F HX  85
$$

IAZ064-065-067-068-078-162000-
   EAST CENTRAL IOWA

CITY           SKY/WX    TMP DP  RH WIND       PRES   REMARKS
DAVENPORT      CLOUDY    80  72  76 SE12      29.89F HX  84
IOWA CITY      CLOUDY    84  72  67 SE16      29.86F HX  89
MUSCATINE *    PTSUNNY   82  72  69 S16       29.86F HX  87
QUAD CITIES    CLOUDY    81  71  71 S13G21    29.87F HX  85
$$

IAZ062-063-075>077-085>089-095>099-162000-
   SOUTHEAST IOWA

CITY           SKY/WX    TMP DP  RH WIND       PRES   REMARKS
BURLINGTON     CLOUDY    81  74  79 S15G22    29.86F HX  86
FAIRFIELD *    CLOUDY    79  72  78 SE13      29.83F HX  82
FORT MADISON * CLOUDY    81  73  78 S13G20    29.87F HX  85
KEOKUK *       CLOUDY    82  72  69 S13       29.86F HX  87
OSKALOOSA *    LGT RAIN  77  73  89 SE12      29.79F
OTTUMWA        LGT RAIN  80  74  81 SE18      29.77F HX  85
WASHINGTON *   PTSUNNY   81  73  78 S14G21    29.85F HX  85
$$

ABBREVIATIONS USED IN REMARKS
   TC - TEMPERATURES IN CELSIUS
  WCI - WIND CHILL INDEX
   HX - HEAT INDEX
  VSB - VISIBILITY
$$




USA.gov is the U.S. government's official web portal to all federal, state and local government web resources and services.